Flight Track Log - Related Links

Times and Time Zones

All times are in EDT time to prevent confusion due to time zone crossing. See the EJA221P flight status page for this flight to view local times or setup timezone preferences in your user account.


Time Position Orientation Groundspeed Altitude Reporting Facility
EDT Latitude Longitude Course Direction KTS MPH feet Rate Location/Type
Fri 05:36:11 PM 38.9500 -77.5000 322° Northwest 181 208 2,000  Level Potomac TRACON
Fri 05:37:11 PM 39.0000 -77.5500 322° Northwest 243 280 5,000 3,000 Climbing Potomac TRACON
Fri 05:38:11 PM 39.0667 -77.5333 11° North 294 338 8,000 2,087 Climbing Potomac TRACON
Fri 05:39:06 PM 39.1167 -77.4833 38° Northeast 315 362 9,000 496 Climbing Potomac TRACON
Fri 05:40:12 PM 39.1833 -77.3667 54° Northeast 309 356 9,000  Level Potomac TRACON
Fri 05:41:06 PM 39.2167 -77.2833 63° Northeast 310 357 9,000 700 Level Potomac TRACON
Fri 05:42:12 PM 39.2667 -77.1833 57° Northeast 316 364 10,400 1,750 Climbing Potomac TRACON
Fri 05:43:06 PM 39.3167 -77.0833 57° Northeast 372 428 12,500 2,250 Climbing Potomac TRACON
Fri 05:43:48 PM 39.3261 -77.0083 81° East 378 435 14,000 2,100 Climbing Washington Center
Fri 05:44:46 PM 39.2986 -76.8600 103° East 390 449 16,000 1,008 Climbing Washington Center
Fri 05:45:47 PM 39.2606 -76.7014 107° East 418 481 16,000 295 Level Washington Center
Fri 05:46:48 PM 39.2181 -76.5344 108° East 459 528 16,600 504 Climbing Washington Center
Fri 05:47:46 PM 39.1800 -76.3467 105° East 478 550 17,000 203 Climbing Washington Center
Fri 05:48:46 PM 39.2081 -76.1675 79° East 484 557 17,000  Level Washington Center
Fri 05:49:46 PM 39.3294 -76.0450 38° Northeast 470 541 17,000  Level Washington Center
Fri 05:50:47 PM 39.4422 -75.9328 38° Northeast 486 559 17,000 -549 Level Washington Center
Fri 05:52:41 PM 39.6667 -75.7167 37° Northeast 517 595 15,400 -1,345 Descending Philadelphia TRACON
Fri 05:53:41 PM 39.7833 -75.6167 33° Northeast 468 539 13,100 -1,200 Descending Philadelphia TRACON
Fri 05:54:41 PM 39.8833 -75.5167 37° Northeast 464 534 13,000 -50 Descending Philadelphia TRACON
Fri 05:55:42 PM 39.9833 -75.4167 37° Northeast 465 535 13,000  Level Philadelphia TRACON
Fri 05:56:42 PM 40.0833 -75.3333 33° Northeast 394 453 13,000  Level Philadelphia TRACON
Fri 05:57:42 PM 40.1667 -75.2667 31° Northeast 324 373 13,000 -800 Level Philadelphia TRACON
Fri 05:58:42 PM 40.2333 -75.1833 44° Northeast 325 374 11,400 -1,705 Descending Philadelphia TRACON
Fri 06:00:52 PM 40.3833 -75.0333 37° Northeast 295 339 7,600 -1,674 Descending New York TRACON
Fri 06:01:52 PM 40.4333 -74.9500 52° Northeast 287 330 6,100 -1,500 Descending New York TRACON
Fri 06:02:52 PM 40.4833 -74.8833 45° Northeast 283 326 4,600 -1,000 Descending New York TRACON
Fri 06:03:52 PM 40.5333 -74.8000 52° Northeast 277 319 4,100 -250 Descending New York TRACON
Fri 06:04:52 PM 40.5833 -74.7333 45° Northeast 283 326 4,100 -400 Level New York TRACON
Fri 06:05:52 PM 40.6500 -74.6833 30° Northeast 273 314 3,300 -500 Descending New York TRACON
Fri 06:06:52 PM 40.7167 -74.6167 37° Northeast 275 316 3,100 -100 Descending New York TRACON
Fri 06:07:52 PM 40.7667 -74.5333 52° Northeast 285 328 3,100  Level New York TRACON
Fri 06:08:52 PM 40.8000 -74.4500 62° Northeast 280 322 3,100  Level New York TRACON
Fri 06:09:52 PM 40.8500 -74.3667 52° Northeast 279 321 3,100  Level New York TRACON
Fri 06:10:52 PM 40.9000 -74.2833 52° Northeast 269 310 3,100 -100 Level New York TRACON
Fri 06:11:52 PM 40.9333 -74.2000 62° Northeast 262 302 2,900 -500 Descending New York TRACON
Fri 06:12:52 PM 40.9333 -74.1167 90° East 228 262 2,100 -667 Descending New York TRACON
Fri 06:13:58 PM 40.9167 -74.0500 108° East 198 228 1,500 -571 Descending New York TRACON
Fri 06:14:58 PM 40.8833 -74.0167 143° Southeast 158 182 900 -600 Descending New York TRACON
Fri 06:15:58 PM 40.8667 -74.0500 237° Southwest 117 135 300 -600 Descending New York TRACON
Fri 06:17:00 PM 40.8500 -74.0500 106° East  Level FlightAware Approximate

Login

Don't have an account? Register now (free) for customized features, flight alerts, and more!